Location: Newark
(52.3500°N, 175.9667°E)
Time: 22:04:16
(UTC+00:00)

Transit 4A - Pass Details

Date: 21 April 2021
Orbit: 871 x 974 km, 66.8° (Epoch: 16 May)

Event Time Altitude Azimuth Distance (km) Brightness Sun altitude
Rises 13:07:09 0° 242° (WSW) 3,613 - -24.6°
Reaches altitude 10° 13:09:51 10° 249° (WSW) 2,656 - -24.5°
Exits shadow 13:12:25 24° 262° (W) 1,820 9.2 -24.4°
Maximum altitude 13:15:45 45° 321° (NW) 1,235 8.7 -24.3°
Drops below altitude 10° 13:21:33 10° 34° (NE) 2,597 11.2 -24.0°
Sets 13:24:09 0° 41° (NE) 3,525 12.0 -23.9°
